Weather in Velikoye

Russia / Yaroslavl Oblast     57°20′56″N   39°46′26″E
temp.,
°C
wind,
m/s
gust,
m/s
humid.,
%
clouds,
%
prec.,
mm/h
press.,
hPa
HPBL,
m
21 june, mon
mon2100:00+19sw23760 0.0 102024
03:00+18sw22850 0.0 102117
06:00+20wsw23835 0.0 102093
09:00+25sw22705 0.0 1021423
12:00+28sw225918 0.0 10211103
15:00+29ssw2353100 0.0 10201455
18:00+26s367496 0.0 1020279
21:00+22ssw3377100 0.0 102027
22 june, tue
tue2200:00+20ssw347764 0.0 102158
03:00+18sw22888 0.0 102116
06:00+21ssw228298 0.0 102287
09:00+24ssw2370100 0.0 1022410
12:00+27ssw345794 0.0 10211072
15:00+29ssw33520 0.0 10211317
18:00+28s24650 0.0 1020359
21:00+23s22770 0.0 102018
23 june, wed
wed2300:00+21ssw23850 0.0 102030
03:00+20sw22885 0.0 102020
06:00+22w23831 0.0 102197
09:00+27w22674 0.0 1021407
12:00+30w23545 0.0 10211002
15:00+31sw124933 0.0 10201382
18:00+29ssw3568100 0.0 1019213
21:00+24sw227797 0.0 101924
24 june, thu
thu2400:00+22sw23839 0.0 102027
03:00+21sw228737 0.0 101912
06:00+22wsw237915 0.0 1020100
09:00+27wsw346458 0.0 1019398
12:00+30sw33535 0.0 10191039
15:00+32ssw344655 0.0 10181722
18:00+29s47650 0.0 1017320
21:00+24sw34780 0.0 101662
25 june, fri
fri2500:00+22wsw337116 0.0 101738
03:00+19nne118718 0.0 101611
06:00+21wsw128298 0.0 101581
09:00+25wnw3470100 0.0 1016492
12:00+28nw236180 0.0 10161012
15:00+30wsw135137 0.0 10151566
18:00+30wsw12596 0.0 1014343
21:00+22sw118492 0.4 101422